Time,TemperatureF,DewpointF,PressureIn,WindDirection,WindDirectionDegrees,WindSpeedMPH,WindSpeedGustMPH,Humidity,HourlyPrecipIn,Conditions,Clouds,dailyrainin,SoftwareType,DateUTC
2013-01-11 00:04:00,33.4,31.1,29.72,SE,135,4.0,11.0,91,0.01,,,0.20,meteohub,2013-01-11 06:04:00,
2013-01-11 00:09:00,33.6,31.3,29.73,South,180,4.0,11.0,91,0.01,,,0.20,meteohub,2013-01-11 06:09:00,
2013-01-11 00:14:00,33.6,31.3,29.72,NW,315,2.0,11.0,91,0.01,,,0.20,meteohub,2013-01-11 06:14:00,
2013-01-11 00:19:00,33.4,31.1,29.72,SE,135,2.0,8.0,91,0.01,,,0.20,meteohub,2013-01-11 06:19:00,
2013-01-11 00:24:00,33.6,31.3,29.71,West,270,5.0,8.0,91,0.00,,,0.20,meteohub,2013-01-11 06:24:00,
2013-01-11 00:29:00,33.6,31.3,29.71,WNW,293,4.0,6.0,91,0.00,,,0.20,meteohub,2013-01-11 06:29:00,
2013-01-11 00:34:00,33.6,31.3,29.70,NE,45,3.0,6.0,91,0.00,,,0.20,meteohub,2013-01-11 06:34:00,
2013-01-11 00:39:00,33.6,31.3,29.70,North,0,3.0,6.0,91,0.00,,,0.20,meteohub,2013-01-11 06:39:00,
2013-01-11 00:44:00,33.6,31.3,29.70,SE,135,6.0,7.0,91,0.00,,,0.20,meteohub,2013-01-11 06:44:00,
2013-01-11 00:49:00,33.8,31.1,29.70,NW,315,2.0,8.0,90,0.00,,,0.20,meteohub,2013-01-11 06:49:00,
2013-01-11 00:54:00,33.8,31.1,29.70,West,270,2.0,8.0,90,0.00,,,0.20,meteohub,2013-01-11 06:54:00,
2013-01-11 00:59:00,33.6,31.3,29.69,SW,225,3.0,8.0,91,0.00,,,0.20,meteohub,2013-01-11 06:59:00,
2013-01-11 01:04:00,33.6,31.3,29.69,SE,135,4.0,8.0,91,0.00,,,0.20,meteohub,2013-01-11 07:04:00,
2013-01-11 01:09:00,33.8,31.1,29.68,South,180,2.0,4.0,90,0.00,,,0.20,meteohub,2013-01-11 07:09:00,
2013-01-11 01:14:00,33.8,31.1,29.68,NW,315,2.0,6.0,90,0.00,,,0.20,meteohub,2013-01-11 07:14:00,
2013-01-11 01:19:00,33.8,31.1,29.68,NE,45,2.0,6.0,90,0.00,,,0.20,meteohub,2013-01-11 07:19:00,
2013-01-11 01:24:00,33.8,31.1,29.68,South,180,3.0,6.0,90,0.00,,,0.20,meteohub,2013-01-11 07:24:00,
2013-01-11 01:29:00,33.8,31.1,29.68,North,0,2.0,4.0,90,0.00,,,0.20,meteohub,2013-01-11 07:29:00,
2013-01-11 01:34:00,33.8,31.1,29.68,NW,315,2.0,3.0,90,0.00,,,0.20,meteohub,2013-01-11 07:34:00,
2013-01-11 01:39:00,33.8,31.1,29.67,NW,315,2.0,4.0,90,0.00,,,0.20,meteohub,2013-01-11 07:39:00,
2013-01-11 01:44:00,33.8,31.1,29.67,NW,315,4.0,4.0,90,0.00,,,0.20,meteohub,2013-01-11 07:44:00,
2013-01-11 01:49:00,33.8,31.1,29.66,SE,135,4.0,4.0,90,0.00,,,0.20,meteohub,2013-01-11 07:49:00,
2013-01-11 01:54:00,33.8,31.1,29.66,East,90,3.0,4.0,90,0.00,,,0.20,meteohub,2013-01-11 07:54:00,
2013-01-11 01:59:00,33.6,31.3,29.66,West,270,3.0,7.0,91,0.00,,,0.20,meteohub,2013-01-11 07:59:00,
2013-01-11 02:04:00,33.8,31.1,29.67,South,180,3.0,7.0,90,0.00,,,0.20,meteohub,2013-01-11 08:04:00,
2013-01-11 02:09:00,33.8,31.1,29.67,SE,135,3.0,7.0,90,0.00,,,0.20,meteohub,2013-01-11 08:09:00,
2013-01-11 02:14:00,33.8,31.1,29.67,SE,135,2.0,3.0,90,0.00,,,0.20,meteohub,2013-01-11 08:14:00,
2013-01-11 02:19:00,33.8,31.1,29.66,SE,135,2.0,4.0,90,0.00,,,0.20,meteohub,2013-01-11 08:19:00,
2013-01-11 02:24:00,33.6,31.3,29.66,SE,135,2.0,5.0,91,0.00,,,0.20,meteohub,2013-01-11 08:24:00,
2013-01-11 02:29:00,33.8,31.1,29.66,South,180,4.0,5.0,90,0.00,,,0.20,meteohub,2013-01-11 08:29:00,
2013-01-11 02:35:00,33.8,31.1,29.65,WSW,248,5.0,6.0,90,0.00,,,0.20,meteohub,2013-01-11 08:35:00,
2013-01-11 02:40:00,33.8,31.1,29.65,South,180,3.0,8.0,90,0.00,,,0.20,meteohub,2013-01-11 08:40:00,
2013-01-11 02:45:00,33.8,31.1,29.66,SW,225,2.0,8.0,90,0.00,,,0.20,meteohub,2013-01-11 08:45:00,
2013-01-11 02:50:00,33.8,31.1,29.65,East,90,4.0,5.0,90,0.00,,,0.20,meteohub,2013-01-11 08:50:00,
2013-01-11 02:55:00,33.8,31.5,29.65,SSE,158,3.0,4.0,91,0.00,,,0.20,meteohub,2013-01-11 08:55:00,
2013-01-11 03:00:00,33.8,31.1,29.65,South,180,6.0,6.0,90,0.00,,,0.20,meteohub,2013-01-11 09:00:00,
2013-01-11 03:05:00,33.8,31.5,29.65,South,180,3.0,6.0,91,0.00,,,0.20,meteohub,2013-01-11 09:05:00,
2013-01-11 03:10:00,33.8,31.5,29.65,SE,135,2.0,6.0,91,0.00,,,0.20,meteohub,2013-01-11 09:10:00,
2013-01-11 03:15:00,33.8,31.5,29.65,SE,135,4.0,9.0,91,0.00,,,0.20,meteohub,2013-01-11 09:15:00,
2013-01-11 03:20:00,33.8,31.5,29.65,NW,315,2.0,9.0,91,0.00,,,0.20,meteohub,2013-01-11 09:20:00,
2013-01-11 03:25:00,33.8,31.5,29.64,SE,135,4.0,9.0,91,0.00,,,0.20,meteohub,2013-01-11 09:25:00,
2013-01-11 03:30:00,34.0,31.6,29.64,NE,45,7.0,8.0,91,0.00,,,0.20,meteohub,2013-01-11 09:30:00,
2013-01-11 03:35:00,34.0,31.6,29.63,East,90,4.0,8.0,91,0.00,,,0.20,meteohub,2013-01-11 09:35:00,
2013-01-11 03:40:00,33.8,31.5,29.62,East,90,4.0,8.0,91,0.00,,,0.20,meteohub,2013-01-11 09:40:00,
2013-01-11 03:45:00,33.8,31.5,29.62,South,180,4.0,8.0,91,0.00,,,0.20,meteohub,2013-01-11 09:45:00,
2013-01-11 03:50:00,33.8,31.5,29.61,East,90,4.0,7.0,91,0.00,,,0.20,meteohub,2013-01-11 09:50:00,
2013-01-11 03:55:00,33.8,31.5,29.62,SE,135,4.0,8.0,91,0.00,,,0.20,meteohub,2013-01-11 09:55:00,
2013-01-11 04:00:00,33.8,31.5,29.61,NE,45,2.0,8.0,91,0.00,,,0.20,meteohub,2013-01-11 10:00:00,
2013-01-11 04:05:00,33.8,31.5,29.61,NE,45,2.0,8.0,91,0.00,,,0.20,meteohub,2013-01-11 10:05:00,
2013-01-11 04:10:00,34.0,31.6,29.61,NE,45,2.0,4.0,91,0.00,,,0.20,meteohub,2013-01-11 10:10:00,
2013-01-11 04:15:00,34.0,31.6,29.61,South,180,2.0,2.0,91,0.00,,,0.20,meteohub,2013-01-11 10:15:00,
2013-01-11 04:20:00,33.8,31.5,29.61,SE,135,4.0,7.0,91,0.00,,,0.20,meteohub,2013-01-11 10:20:00,
2013-01-11 04:25:00,33.8,31.5,29.61,NNW,338,3.0,7.0,91,0.00,,,0.20,meteohub,2013-01-11 10:25:00,
2013-01-11 04:30:00,33.8,31.5,29.61,South,180,3.0,4.0,91,0.00,,,0.20,meteohub,2013-01-11 10:30:00,
2013-01-11 04:35:00,33.8,31.5,29.61,NE,45,2.0,4.0,91,0.00,,,0.20,meteohub,2013-01-11 10:35:00,
2013-01-11 04:40:00,33.8,31.5,29.61,North,0,2.0,3.0,91,0.00,,,0.20,meteohub,2013-01-11 10:40:00,
2013-01-11 04:45:00,33.8,31.5,29.60,SSE,158,3.0,3.0,91,0.00,,,0.20,meteohub,2013-01-11 10:45:00,
2013-01-11 04:50:00,33.8,31.5,29.60,SE,135,2.0,3.0,91,0.00,,,0.20,meteohub,2013-01-11 10:50:00,
2013-01-11 04:55:00,33.8,31.5,29.59,NW,315,1.0,3.0,91,0.00,,,0.20,meteohub,2013-01-11 10:55:00,
2013-01-11 05:00:00,33.8,31.5,29.59,NW,315,2.0,3.0,91,0.00,,,0.20,meteohub,2013-01-11 11:00:00,
2013-01-11 05:05:00,33.8,31.5,29.59,South,180,2.0,3.0,91,0.00,,,0.20,meteohub,2013-01-11 11:05:00,
2013-01-11 05:10:00,33.8,31.5,29.59,SE,135,1.0,3.0,91,0.00,,,0.20,meteohub,2013-01-11 11:10:00,
2013-01-11 05:15:00,33.8,31.5,29.60,SE,135,1.0,3.0,91,0.00,,,0.20,meteohub,2013-01-11 11:15:00,
2013-01-11 05:20:00,33.8,31.5,29.59,SE,135,1.0,3.0,91,0.00,,,0.20,meteohub,2013-01-11 11:20:00,
2013-01-11 05:26:00,34.0,31.6,29.58,SW,225,2.0,2.0,91,0.00,,,0.20,meteohub,2013-01-11 11:26:00,
2013-01-11 05:30:00,33.8,31.5,29.59,West,270,1.0,2.0,91,0.00,,,0.20,meteohub,2013-01-11 11:30:00,
2013-01-11 05:36:00,33.8,31.5,29.58,SE,135,3.0,4.0,91,0.00,,,0.20,meteohub,2013-01-11 11:36:00,
2013-01-11 05:40:00,33.8,31.5,29.58,SE,135,2.0,4.0,91,0.00,,,0.20,meteohub,2013-01-11 11:40:00,
2013-01-11 05:46:00,34.0,31.6,29.58,West,270,1.0,4.0,91,0.00,,,0.20,meteohub,2013-01-11 11:46:00,
2013-01-11 05:51:00,34.0,31.6,29.58,WNW,293,1.0,3.0,91,0.01,,,0.21,meteohub,2013-01-11 11:51:00,
2013-01-11 05:56:00,34.0,31.6,29.58,SE,135,4.0,4.0,91,0.01,,,0.21,meteohub,2013-01-11 11:56:00,
2013-01-11 06:01:00,34.0,31.6,29.58,SE,135,1.0,4.0,91,0.01,,,0.21,meteohub,2013-01-11 12:01:00,
2013-01-11 06:06:00,34.0,31.6,29.58,SE,135,1.0,4.0,91,0.01,,,0.21,meteohub,2013-01-11 12:06:00,
2013-01-11 06:11:00,34.0,31.6,29.57,NW,315,2.0,4.0,91,0.01,,,0.21,meteohub,2013-01-11 12:11:00,
2013-01-11 06:16:00,34.0,31.6,29.58,NNW,338,2.0,3.0,91,0.01,,,0.21,meteohub,2013-01-11 12:16:00,
2013-01-11 06:21:00,34.0,31.6,29.58,NE,45,2.0,3.0,91,0.01,,,0.21,meteohub,2013-01-11 12:21:00,
2013-01-11 06:26:00,34.0,31.6,29.58,West,270,0.0,3.0,91,0.01,,,0.21,meteohub,2013-01-11 12:26:00,
2013-01-11 06:31:00,34.0,31.6,29.58,East,90,2.0,3.0,91,0.01,,,0.21,meteohub,2013-01-11 12:31:00,
2013-01-11 06:36:00,34.0,31.6,29.58,South,180,2.0,3.0,91,0.01,,,0.21,meteohub,2013-01-11 12:36:00,
2013-01-11 06:41:00,33.8,31.5,29.58,NW,315,2.0,3.0,91,0.01,,,0.21,meteohub,2013-01-11 12:41:00,
2013-01-11 06:46:00,33.8,31.5,29.57,North,0,1.0,3.0,91,0.01,,,0.21,meteohub,2013-01-11 12:46:00,
2013-01-11 06:51:00,33.8,31.5,29.57,SE,135,5.0,5.0,91,0.00,,,0.21,meteohub,2013-01-11 12:51:00,
2013-01-11 06:56:00,34.0,31.6,29.57,NE,45,3.0,5.0,91,0.00,,,0.21,meteohub,2013-01-11 12:56:00,
2013-01-11 07:01:00,33.8,31.5,29.57,South,180,2.0,5.0,91,0.00,,,0.21,meteohub,2013-01-11 13:01:00,
2013-01-11 07:06:00,34.0,31.6,29.56,East,90,4.0,5.0,91,0.00,,,0.21,meteohub,2013-01-11 13:06:00,
2013-01-11 07:11:00,34.0,31.6,29.57,SE,135,3.0,6.0,91,0.00,,,0.21,meteohub,2013-01-11 13:11:00,
2013-01-11 07:16:00,34.0,31.6,29.56,North,0,2.0,6.0,91,0.00,,,0.21,meteohub,2013-01-11 13:16:00,
2013-01-11 07:21:00,34.0,31.6,29.56,South,180,2.0,6.0,91,0.00,,,0.21,meteohub,2013-01-11 13:21:00,
2013-01-11 07:26:00,34.0,31.6,29.56,WSW,248,2.0,6.0,91,0.00,,,0.21,meteohub,2013-01-11 13:26:00,
2013-01-11 07:31:00,34.0,31.6,29.56,South,180,2.0,6.0,91,0.00,,,0.21,meteohub,2013-01-11 13:31:00,
2013-01-11 07:36:00,34.0,31.6,29.55,East,90,3.0,6.0,91,0.00,,,0.21,meteohub,2013-01-11 13:36:00,
2013-01-11 07:41:00,34.0,31.6,29.55,SE,135,5.0,5.0,91,0.00,,,0.21,meteohub,2013-01-11 13:41:00,
2013-01-11 07:46:00,34.2,31.8,29.56,SE,135,2.0,5.0,91,0.00,,,0.21,meteohub,2013-01-11 13:46:00,
2013-01-11 07:51:00,34.2,31.8,29.56,SE,135,1.0,5.0,91,0.00,,,0.21,meteohub,2013-01-11 13:51:00,
2013-01-11 07:56:00,34.2,31.8,29.56,NW,315,2.0,5.0,91,0.00,,,0.21,meteohub,2013-01-11 13:56:00,
2013-01-11 08:01:00,34.2,31.8,29.56,East,90,3.0,3.0,91,0.00,,,0.21,meteohub,2013-01-11 14:01:00,
2013-01-11 08:06:00,34.2,31.8,29.56,East,90,3.0,3.0,91,0.00,,,0.21,meteohub,2013-01-11 14:06:00,
2013-01-11 08:11:00,34.2,31.8,29.55,South,180,6.0,6.0,91,0.00,,,0.21,meteohub,2013-01-11 14:11:00,
2013-01-11 08:16:00,34.2,31.8,29.56,NW,315,6.0,6.0,91,0.00,,,0.21,meteohub,2013-01-11 14:16:00,
2013-01-11 08:21:00,34.3,32.0,29.55,West,270,3.0,6.0,91,0.00,,,0.21,meteohub,2013-01-11 14:21:00,
2013-01-11 08:26:00,34.3,32.0,29.55,SSE,158,5.0,6.0,91,0.00,,,0.21,meteohub,2013-01-11 14:26:00,
2013-01-11 08:31:00,34.5,32.2,29.55,NW,315,4.0,6.0,91,0.00,,,0.21,meteohub,2013-01-11 14:31:00,
2013-01-11 08:36:00,34.7,32.4,29.55,South,180,4.0,5.0,91,0.00,,,0.21,meteohub,2013-01-11 14:36:00,
2013-01-11 08:41:00,34.7,32.5,29.55,SE,135,4.0,5.0,92,0.00,,,0.21,meteohub,2013-01-11 14:41:00,
2013-01-11 08:46:00,34.9,32.7,29.55,South,180,4.0,7.0,92,0.00,,,0.21,meteohub,2013-01-11 14:46:00,
2013-01-11 08:51:00,34.9,32.7,29.55,South,180,4.0,7.0,92,0.00,,,0.21,meteohub,2013-01-11 14:51:00,
2013-01-11 08:56:00,35.1,32.9,29.55,NW,315,2.0,7.0,92,0.00,,,0.21,meteohub,2013-01-11 14:56:00,
2013-01-11 09:01:00,35.1,32.9,29.55,NE,45,2.0,6.0,92,0.00,,,0.21,meteohub,2013-01-11 15:01:00,
2013-01-11 09:07:00,35.2,33.1,29.55,ESE,113,3.0,6.0,92,0.00,,,0.21,meteohub,2013-01-11 15:07:00,
2013-01-11 09:12:00,35.2,33.1,29.55,WNW,293,3.0,4.0,92,0.00,,,0.21,meteohub,2013-01-11 15:12:00,
2013-01-11 09:17:00,35.1,32.9,29.55,East,90,2.0,3.0,92,0.00,,,0.21,meteohub,2013-01-11 15:17:00,
2013-01-11 09:22:00,35.1,32.9,29.55,North,0,2.0,3.0,92,0.00,,,0.21,meteohub,2013-01-11 15:22:00,
2013-01-11 09:27:00,35.2,33.1,29.55,South,180,2.0,4.0,92,0.00,,,0.21,meteohub,2013-01-11 15:27:00,
2013-01-11 09:32:00,35.2,33.1,29.54,SE,135,4.0,4.0,92,0.00,,,0.21,meteohub,2013-01-11 15:32:00,
2013-01-11 09:37:00,35.4,33.3,29.54,NNE,23,4.0,4.0,92,0.00,,,0.21,meteohub,2013-01-11 15:37:00,
2013-01-11 09:42:00,35.6,33.3,29.54,NE,45,2.0,8.0,91,0.00,,,0.21,meteohub,2013-01-11 15:42:00,
2013-01-11 09:47:00,35.6,33.3,29.55,North,0,2.0,8.0,91,0.00,,,0.21,meteohub,2013-01-11 15:47:00,
2013-01-11 09:52:00,35.6,33.3,29.55,North,0,2.0,8.0,91,0.00,,,0.21,meteohub,2013-01-11 15:52:00,
2013-01-11 09:57:00,35.8,33.4,29.55,East,90,3.0,4.0,91,0.00,,,0.21,meteohub,2013-01-11 15:57:00,
2013-01-11 10:02:00,35.8,33.4,29.55,SSE,158,2.0,4.0,91,0.00,,,0.21,meteohub,2013-01-11 16:02:00,
2013-01-11 10:07:00,35.8,33.4,29.55,SW,225,2.0,3.0,91,0.00,,,0.21,meteohub,2013-01-11 16:07:00,
2013-01-11 10:12:00,36.0,33.6,29.54,SE,135,2.0,3.0,91,0.00,,,0.21,meteohub,2013-01-11 16:12:00,
2013-01-11 10:17:00,36.0,33.6,29.55,SW,225,2.0,3.0,91,0.00,,,0.21,meteohub,2013-01-11 16:17:00,
2013-01-11 10:22:00,36.3,34.0,29.55,NE,45,1.0,3.0,91,0.00,,,0.21,meteohub,2013-01-11 16:22:00,
2013-01-11 10:27:00,36.9,34.7,29.55,NW,315,1.0,3.0,92,0.00,,,0.21,meteohub,2013-01-11 16:27:00,
2013-01-11 10:32:00,37.0,34.9,29.55,NW,315,2.0,3.0,92,0.00,,,0.21,meteohub,2013-01-11 16:32:00,
2013-01-11 10:37:00,36.9,34.7,29.55,North,0,1.0,3.0,92,0.00,,,0.21,meteohub,2013-01-11 16:37:00,
2013-01-11 10:42:00,36.9,34.7,29.55,North,0,2.0,2.0,92,0.00,,,0.21,meteohub,2013-01-11 16:42:00,
2013-01-11 10:47:00,36.9,34.7,29.55,East,90,1.0,2.0,92,0.00,,,0.21,meteohub,2013-01-11 16:47:00,
2013-01-11 10:52:00,36.9,34.7,29.55,East,90,3.0,3.0,92,0.00,,,0.21,meteohub,2013-01-11 16:52:00,
2013-01-11 10:57:00,36.7,34.5,29.55,West,270,2.0,3.0,92,0.00,,,0.21,meteohub,2013-01-11 16:57:00,
2013-01-11 11:02:00,36.7,34.5,29.54,SSE,158,4.0,4.0,92,0.00,,,0.21,meteohub,2013-01-11 17:02:00,
2013-01-11 11:07:00,36.5,34.2,29.54,SE,135,4.0,4.0,91,0.00,,,0.21,meteohub,2013-01-11 17:07:00,
2013-01-11 11:13:00,36.5,34.2,29.53,SW,225,2.0,4.0,91,0.00,,,0.21,meteohub,2013-01-11 17:13:00,
2013-01-11 11:18:00,36.5,34.2,29.54,SE,135,2.0,4.0,91,0.00,,,0.21,meteohub,2013-01-11 17:18:00,
2013-01-11 11:23:00,36.5,34.2,29.53,NW,315,2.0,4.0,91,0.00,,,0.21,meteohub,2013-01-11 17:23:00,
2013-01-11 11:28:00,36.5,34.2,29.53,SSW,203,2.0,2.0,91,0.00,,,0.21,meteohub,2013-01-11 17:28:00,
2013-01-11 11:33:00,36.5,34.2,29.53,SSW,203,2.0,2.0,91,0.00,,,0.21,meteohub,2013-01-11 17:33:00,
2013-01-11 11:38:00,36.3,34.0,29.52,NW,315,2.0,2.0,91,0.00,,,0.21,meteohub,2013-01-11 17:38:00,
2013-01-11 11:43:00,36.3,34.0,29.52,NW,315,2.0,2.0,91,0.00,,,0.21,meteohub,2013-01-11 17:43:00,
2013-01-11 11:48:00,36.1,33.8,29.52,East,90,4.0,4.0,91,0.00,,,0.21,meteohub,2013-01-11 17:48:00,
2013-01-11 11:53:00,36.1,33.8,29.52,NE,45,2.0,4.0,91,0.00,,,0.21,meteohub,2013-01-11 17:53:00,
2013-01-11 11:58:00,36.1,33.8,29.51,SE,135,4.0,4.0,91,0.00,,,0.21,meteohub,2013-01-11 17:58:00,
2013-01-11 12:03:00,36.1,33.8,29.51,SE,135,3.0,4.0,91,0.00,,,0.21,meteohub,2013-01-11 18:03:00,
2013-01-11 12:08:00,36.1,33.8,29.51,SE,135,4.0,4.0,91,0.00,,,0.21,meteohub,2013-01-11 18:08:00,
2013-01-11 12:13:00,36.1,33.8,29.51,South,180,3.0,4.0,91,0.00,,,0.21,meteohub,2013-01-11 18:13:00,
2013-01-11 12:18:00,36.1,33.8,29.49,SE,135,2.0,4.0,91,0.00,,,0.21,meteohub,2013-01-11 18:18:00,
2013-01-11 12:23:00,36.1,33.8,29.49,SW,225,1.0,4.0,91,0.00,,,0.21,meteohub,2013-01-11 18:23:00,
2013-01-11 12:28:00,36.3,34.0,29.49,NE,45,2.0,4.0,91,0.00,,,0.21,meteohub,2013-01-11 18:28:00,
2013-01-11 12:33:00,36.3,34.0,29.49,SE,135,3.0,4.0,91,0.00,,,0.21,meteohub,2013-01-11 18:33:00,
2013-01-11 12:38:00,36.3,34.0,29.49,NW,315,6.0,6.0,91,0.00,,,0.21,meteohub,2013-01-11 18:38:00,
2013-01-11 12:43:00,36.3,34.0,29.48,NW,315,4.0,6.0,91,0.00,,,0.21,meteohub,2013-01-11 18:43:00,
2013-01-11 12:48:00,36.3,34.0,29.49,North,0,4.0,6.0,91,0.00,,,0.21,meteohub,2013-01-11 18:48:00,
2013-01-11 12:53:00,36.3,34.0,29.49,South,180,2.0,6.0,91,0.00,,,0.21,meteohub,2013-01-11 18:53:00,
2013-01-11 12:58:00,36.3,34.0,29.48,East,90,4.0,6.0,91,0.00,,,0.21,meteohub,2013-01-11 18:58:00,
2013-01-11 13:03:00,36.3,34.0,29.48,SE,135,3.0,8.0,91,0.00,,,0.21,meteohub,2013-01-11 19:03:00,
2013-01-11 13:08:00,36.3,34.0,29.47,ESE,113,2.0,8.0,91,0.00,,,0.21,meteohub,2013-01-11 19:08:00,
2013-01-11 13:13:00,36.3,34.0,29.48,South,180,2.0,8.0,91,0.00,,,0.21,meteohub,2013-01-11 19:13:00,
2013-01-11 13:19:00,36.3,34.0,29.47,NW,315,2.0,7.0,91,0.00,,,0.21,meteohub,2013-01-11 19:19:00,
2013-01-11 13:24:00,36.5,34.2,29.47,East,90,4.0,7.0,91,0.00,,,0.21,meteohub,2013-01-11 19:24:00,
2013-01-11 13:29:00,36.5,34.2,29.47,NW,315,3.0,6.0,91,0.00,,,0.21,meteohub,2013-01-11 19:29:00,
2013-01-11 13:34:00,36.5,34.2,29.47,NW,315,2.0,6.0,91,0.00,,,0.21,meteohub,2013-01-11 19:34:00,
2013-01-11 13:39:00,36.7,34.3,29.47,SSE,158,2.0,6.0,91,0.00,,,0.21,meteohub,2013-01-11 19:39:00,
2013-01-11 13:44:00,36.7,34.3,29.47,NW,315,2.0,5.0,91,0.00,,,0.21,meteohub,2013-01-11 19:44:00,
2013-01-11 13:49:00,36.7,34.5,29.47,North,0,2.0,3.0,92,0.00,,,0.21,meteohub,2013-01-11 19:49:00,
2013-01-11 13:54:00,36.7,34.5,29.47,NW,315,4.0,4.0,92,0.00,,,0.21,meteohub,2013-01-11 19:54:00,
2013-01-11 13:59:00,36.7,34.5,29.47,East,90,4.0,4.0,92,0.00,,,0.21,meteohub,2013-01-11 19:59:00,
2013-01-11 14:04:00,36.7,34.5,29.47,East,90,4.0,4.0,92,0.00,,,0.21,meteohub,2013-01-11 20:04:00,
2013-01-11 14:09:00,36.7,34.5,29.47,SW,225,2.0,4.0,92,0.00,,,0.21,meteohub,2013-01-11 20:09:00,
2013-01-11 14:14:00,36.7,34.5,29.47,North,0,1.0,4.0,92,0.00,,,0.21,meteohub,2013-01-11 20:14:00,
2013-01-11 14:19:00,36.7,34.3,29.47,SSW,203,2.0,4.0,91,0.00,,,0.21,meteohub,2013-01-11 20:19:00,
2013-01-11 14:24:00,36.5,34.2,29.47,SSW,203,2.0,4.0,91,0.00,,,0.21,meteohub,2013-01-11 20:24:00,
2013-01-11 14:29:00,36.5,34.2,29.47,SSW,203,5.0,5.0,91,0.00,,,0.21,meteohub,2013-01-11 20:29:00,
2013-01-11 14:34:00,36.5,34.2,29.48,South,180,2.0,5.0,91,0.00,,,0.21,meteohub,2013-01-11 20:34:00,
2013-01-11 14:39:00,36.5,34.2,29.48,West,270,2.0,5.0,91,0.00,,,0.21,meteohub,2013-01-11 20:39:00,
2013-01-11 14:44:00,36.5,34.2,29.47,SE,135,2.0,5.0,91,0.00,,,0.21,meteohub,2013-01-11 20:44:00,
2013-01-11 14:49:00,36.5,34.2,29.47,SW,225,1.0,2.0,91,0.00,,,0.21,meteohub,2013-01-11 20:49:00,
2013-01-11 14:54:00,36.3,34.0,29.47,East,90,6.0,6.0,91,0.00,,,0.21,meteohub,2013-01-11 20:54:00,
2013-01-11 14:59:00,36.3,34.0,29.47,SE,135,4.0,4.0,91,0.00,,,0.21,meteohub,2013-01-11 20:59:00,
2013-01-11 15:04:00,36.3,34.0,29.47,NE,45,2.0,6.0,91,0.00,,,0.21,meteohub,2013-01-11 21:04:00,
2013-01-11 15:09:00,36.3,34.0,29.46,SE,135,4.0,7.0,91,0.00,,,0.21,meteohub,2013-01-11 21:09:00,
2013-01-11 15:14:00,36.3,34.0,29.46,SE,135,2.0,8.0,91,0.00,,,0.21,meteohub,2013-01-11 21:14:00,
2013-01-11 15:19:00,36.3,34.0,29.46,SE,135,2.0,8.0,91,0.00,,,0.21,meteohub,2013-01-11 21:19:00,
2013-01-11 15:24:00,36.3,34.0,29.46,North,0,4.0,8.0,91,0.00,,,0.21,meteohub,2013-01-11 21:24:00,
2013-01-11 15:29:00,36.3,34.0,29.46,West,270,4.0,8.0,91,0.00,,,0.21,meteohub,2013-01-11 21:29:00,
2013-01-11 15:34:00,36.3,34.0,29.46,ESE,113,6.0,6.0,91,0.00,,,0.21,meteohub,2013-01-11 21:34:00,
2013-01-11 15:39:00,36.3,34.0,29.45,SE,135,8.0,8.0,91,0.00,,,0.21,meteohub,2013-01-11 21:39:00,
2013-01-11 15:44:00,36.5,34.2,29.45,South,180,4.0,8.0,91,0.00,,,0.21,meteohub,2013-01-11 21:44:00,
2013-01-11 15:49:00,36.5,34.3,29.45,East,90,4.0,8.0,92,0.00,,,0.21,meteohub,2013-01-11 21:49:00,
2013-01-11 15:54:00,36.5,34.3,29.45,East,90,7.0,8.0,92,0.00,,,0.21,meteohub,2013-01-11 21:54:00,
2013-01-11 15:59:00,36.7,34.5,29.45,SE,135,6.0,6.0,92,0.00,,,0.21,meteohub,2013-01-11 21:59:00,
2013-01-11 16:04:00,36.7,34.5,29.45,SE,135,8.0,8.0,92,0.01,,,0.22,meteohub,2013-01-11 22:04:00,
2013-01-11 16:09:00,36.5,34.3,29.44,NE,45,11.0,11.0,92,0.01,,,0.22,meteohub,2013-01-11 22:09:00,
2013-01-11 16:14:00,36.5,34.3,29.44,SSE,158,5.0,11.0,92,0.01,,,0.22,meteohub,2013-01-11 22:14:00,
2013-01-11 16:19:00,36.5,34.3,29.44,SE,135,6.0,11.0,92,0.01,,,0.22,meteohub,2013-01-11 22:19:00,
2013-01-11 16:24:00,36.5,34.3,29.44,SE,135,4.0,11.0,92,0.01,,,0.22,meteohub,2013-01-11 22:24:00,
2013-01-11 16:29:00,36.5,34.3,29.43,East,90,5.0,11.0,92,0.01,,,0.22,meteohub,2013-01-11 22:29:00,
2013-01-11 16:34:00,36.5,34.3,29.43,East,90,4.0,10.0,92,0.01,,,0.22,meteohub,2013-01-11 22:34:00,
2013-01-11 16:39:00,36.5,34.3,29.43,SE,135,7.0,10.0,92,0.01,,,0.22,meteohub,2013-01-11 22:39:00,
2013-01-11 16:44:00,36.5,34.3,29.43,SE,135,4.0,9.0,92,0.01,,,0.22,meteohub,2013-01-11 22:44:00,
2013-01-11 16:49:00,36.5,34.3,29.42,SE,135,4.0,9.0,92,0.01,,,0.22,meteohub,2013-01-11 22:49:00,
2013-01-11 16:54:00,36.5,34.3,29.42,East,90,4.0,9.0,92,0.01,,,0.22,meteohub,2013-01-11 22:54:00,
2013-01-11 16:59:00,36.7,34.5,29.42,SE,135,4.0,8.0,92,0.01,,,0.22,meteohub,2013-01-11 22:59:00,
2013-01-11 17:04:00,36.7,34.5,29.43,SSW,203,5.0,8.0,92,0.00,,,0.22,meteohub,2013-01-11 23:04:00,
2013-01-11 17:09:00,36.5,34.3,29.42,ESE,113,4.0,8.0,92,0.00,,,0.22,meteohub,2013-01-11 23:09:00,
2013-01-11 17:14:00,36.7,34.5,29.43,East,90,4.0,8.0,92,0.00,,,0.22,meteohub,2013-01-11 23:14:00,
2013-01-11 17:19:00,36.9,34.7,29.42,SE,135,3.0,7.0,92,0.00,,,0.22,meteohub,2013-01-11 23:19:00,
2013-01-11 17:24:00,36.9,34.7,29.43,SE,135,4.0,7.0,92,0.00,,,0.22,meteohub,2013-01-11 23:24:00,
2013-01-11 17:30:00,36.7,34.5,29.43,East,90,4.0,7.0,92,0.00,,,0.22,meteohub,2013-01-11 23:30:00,
2013-01-11 17:35:00,36.7,34.5,29.43,SSE,158,4.0,7.0,92,0.00,,,0.22,meteohub,2013-01-11 23:35:00,
2013-01-11 17:40:00,36.7,34.5,29.42,ENE,68,3.0,6.0,92,0.00,,,0.22,meteohub,2013-01-11 23:40:00,
2013-01-11 17:44:00,36.9,34.7,29.42,East,90,4.0,6.0,92,0.00,,,0.22,meteohub,2013-01-11 23:44:00,
2013-01-11 17:49:00,36.9,34.7,29.42,SSE,158,4.0,6.0,92,0.00,,,0.22,meteohub,2013-01-11 23:49:00,
2013-01-11 17:55:00,36.9,34.7,29.42,SE,135,6.0,8.0,92,0.00,,,0.22,meteohub,2013-01-11 23:55:00,
2013-01-11 18:00:00,36.9,34.7,29.41,East,90,3.0,11.0,92,0.00,,,0.22,meteohub,2013-01-12 00:00:00,
2013-01-11 18:05:00,36.9,34.7,29.41,East,90,3.0,11.0,92,0.00,,,0.22,meteohub,2013-01-12 00:05:00,
2013-01-11 18:10:00,36.5,34.3,29.41,NE,45,3.0,7.0,92,0.00,,,0.00,meteohub,2013-01-12 00:10:00,
2013-01-11 18:15:00,36.7,34.5,29.42,SE,135,3.0,6.0,92,0.00,,,0.00,meteohub,2013-01-12 00:15:00,
2013-01-11 18:20:00,36.7,34.5,29.40,South,180,3.0,4.0,92,0.00,,,0.00,meteohub,2013-01-12 00:20:00,
2013-01-11 18:25:00,36.9,34.7,29.41,North,0,4.0,4.0,92,0.00,,,0.00,meteohub,2013-01-12 00:25:00,
2013-01-11 18:30:00,36.9,34.7,29.40,SW,225,4.0,6.0,92,0.00,,,0.00,meteohub,2013-01-12 00:30:00,
2013-01-11 18:35:00,37.0,34.9,29.40,South,180,4.0,6.0,92,0.00,,,0.00,meteohub,2013-01-12 00:35:00,
2013-01-11 18:40:00,37.0,35.2,29.40,NNE,23,5.0,5.0,93,0.00,,,0.00,meteohub,2013-01-12 00:40:00,
2013-01-11 18:45:00,37.2,35.4,29.40,West,270,4.0,5.0,93,0.00,,,0.00,meteohub,2013-01-12 00:45:00,
2013-01-11 18:50:00,37.4,36.7,29.40,North,0,2.0,5.0,97,0.00,,,0.00,meteohub,2013-01-12 00:50:00,
2013-01-11 18:55:00,37.4,36.7,29.39,NW,315,2.0,5.0,97,0.00,,,0.00,meteohub,2013-01-12 00:55:00,
2013-01-11 19:00:00,37.9,37.2,29.39,North,0,2.0,4.0,97,0.00,,,0.00,meteohub,2013-01-12 01:00:00,
2013-01-11 19:05:00,38.1,37.4,29.39,SE,135,6.0,6.0,97,0.00,,,0.00,meteohub,2013-01-12 01:05:00,
2013-01-11 19:10:00,38.5,37.8,29.39,ENE,68,2.0,6.0,97,0.00,,,0.00,meteohub,2013-01-12 01:10:00,
2013-01-11 19:15:00,38.5,37.8,29.40,South,180,4.0,8.0,97,0.00,,,0.00,meteohub,2013-01-12 01:15:00,
2013-01-11 19:20:00,38.7,37.9,29.40,NW,315,2.0,8.0,97,0.00,,,0.00,meteohub,2013-01-12 01:20:00,
2013-01-11 19:25:00,38.7,37.9,29.40,SE,135,3.0,8.0,97,0.00,,,0.00,meteohub,2013-01-12 01:25:00,
2013-01-11 19:30:00,38.8,38.3,29.39,East,90,4.0,4.0,98,0.00,,,0.00,meteohub,2013-01-12 01:30:00,
2013-01-11 19:35:00,38.8,38.3,29.39,SSE,158,4.0,4.0,98,0.00,,,0.00,meteohub,2013-01-12 01:35:00,
2013-01-11 19:40:00,39.0,38.5,29.40,NE,45,1.0,4.0,98,0.00,,,0.00,meteohub,2013-01-12 01:40:00,
2013-01-11 19:45:00,39.2,38.5,29.39,SE,135,2.0,4.0,97,0.00,,,0.00,meteohub,2013-01-12 01:45:00,
2013-01-11 19:50:00,39.2,38.5,29.40,SW,225,3.0,4.0,97,0.00,,,0.00,meteohub,2013-01-12 01:50:00,
2013-01-11 19:55:00,39.2,38.5,29.40,North,0,3.0,4.0,97,0.00,,,0.00,meteohub,2013-01-12 01:55:00,
2013-01-11 20:00:00,39.0,38.5,29.40,West,270,2.0,5.0,98,0.00,,,0.00,meteohub,2013-01-12 02:00:00,
2013-01-11 20:05:00,39.0,38.5,29.40,West,270,2.0,5.0,98,0.00,,,0.00,meteohub,2013-01-12 02:05:00,
2013-01-11 20:10:00,38.8,38.3,29.39,East,90,4.0,4.0,98,0.00,,,0.00,meteohub,2013-01-12 02:10:00,
2013-01-11 20:15:00,38.8,38.3,29.39,West,270,3.0,9.0,98,0.00,,,0.00,meteohub,2013-01-12 02:15:00,
2013-01-11 20:20:00,38.8,38.3,29.39,NW,315,2.0,9.0,98,0.00,,,0.00,meteohub,2013-01-12 02:20:00,
2013-01-11 20:25:00,38.8,38.3,29.39,East,90,4.0,9.0,98,0.00,,,0.00,meteohub,2013-01-12 02:25:00,
2013-01-11 20:30:00,38.7,38.1,29.39,NNE,23,7.0,7.0,98,0.00,,,0.00,meteohub,2013-01-12 02:30:00,
2013-01-11 20:35:00,38.7,38.1,29.38,SW,225,2.0,7.0,98,0.00,,,0.00,meteohub,2013-01-12 02:35:00,
2013-01-11 20:40:00,38.8,38.3,29.39,NW,315,4.0,7.0,98,0.00,,,0.00,meteohub,2013-01-12 02:40:00,
2013-01-11 20:45:00,39.2,38.5,29.39,North,0,2.0,7.0,97,0.00,,,0.00,meteohub,2013-01-12 02:45:00,
2013-01-11 20:50:00,38.8,38.3,29.38,West,270,2.0,6.0,98,0.00,,,0.00,meteohub,2013-01-12 02:50:00,
2013-01-11 20:55:00,38.8,38.3,29.39,South,180,3.0,6.0,98,0.00,,,0.00,meteohub,2013-01-12 02:55:00,
2013-01-11 21:00:00,39.2,38.5,29.38,South,180,2.0,6.0,97,0.00,,,0.00,meteohub,2013-01-12 03:00:00,
2013-01-11 21:05:00,39.2,38.5,29.38,East,90,2.0,4.0,97,0.00,,,0.00,meteohub,2013-01-12 03:05:00,
2013-01-11 21:10:00,39.2,38.5,29.38,West,270,2.0,3.0,97,0.00,,,0.00,meteohub,2013-01-12 03:10:00,
2013-01-11 21:16:00,39.2,38.5,29.38,North,0,2.0,4.0,97,0.00,,,0.00,meteohub,2013-01-12 03:16:00,
2013-01-11 21:21:00,39.2,38.5,29.38,SE,135,8.0,8.0,97,0.00,,,0.00,meteohub,2013-01-12 03:21:00,
2013-01-11 21:26:00,39.2,38.5,29.38,NW,315,2.0,8.0,97,0.00,,,0.00,meteohub,2013-01-12 03:26:00,
2013-01-11 21:31:00,38.8,38.3,29.38,East,90,5.0,8.0,98,0.00,,,0.00,meteohub,2013-01-12 03:31:00,
2013-01-11 21:36:00,38.8,38.3,29.37,NW,315,2.0,8.0,98,0.00,,,0.00,meteohub,2013-01-12 03:36:00,
2013-01-11 21:41:00,38.8,38.3,29.38,NE,45,1.0,5.0,98,0.00,,,0.00,meteohub,2013-01-12 03:41:00,
2013-01-11 21:46:00,39.2,38.5,29.38,SW,225,3.0,5.0,97,0.00,,,0.00,meteohub,2013-01-12 03:46:00,
2013-01-11 21:51:00,39.4,38.7,29.38,NE,45,2.0,3.0,97,0.00,,,0.00,meteohub,2013-01-12 03:51:00,
2013-01-11 21:56:00,39.4,38.7,29.37,SE,135,4.0,4.0,97,0.01,,,0.01,meteohub,2013-01-12 03:56:00,
2013-01-11 22:01:00,39.2,38.5,29.38,NW,315,3.0,4.0,97,0.01,,,0.01,meteohub,2013-01-12 04:01:00,
2013-01-11 22:06:00,39.2,38.5,29.37,NW,315,3.0,4.0,97,0.01,,,0.01,meteohub,2013-01-12 04:06:00,
2013-01-11 22:11:00,39.2,38.5,29.37,NW,315,3.0,4.0,97,0.01,,,0.01,meteohub,2013-01-12 04:11:00,
2013-01-11 22:16:00,39.2,38.5,29.37,South,180,6.0,6.0,97,0.01,,,0.01,meteohub,2013-01-12 04:16:00,
2013-01-11 22:21:00,39.2,38.5,29.37,East,90,3.0,6.0,97,0.01,,,0.01,meteohub,2013-01-12 04:21:00,
2013-01-11 22:26:00,39.2,38.5,29.37,South,180,2.0,6.0,97,0.01,,,0.01,meteohub,2013-01-12 04:26:00,
2013-01-11 22:31:00,39.2,38.5,29.37,West,270,2.0,6.0,97,0.01,,,0.01,meteohub,2013-01-12 04:31:00,
2013-01-11 22:36:00,39.4,38.7,29.36,NE,45,3.0,4.0,97,0.01,,,0.01,meteohub,2013-01-12 04:36:00,
2013-01-11 22:41:00,39.4,38.8,29.36,North,0,2.0,4.0,98,0.01,,,0.01,meteohub,2013-01-12 04:41:00,
2013-01-11 22:46:00,39.6,39.0,29.36,ENE,68,2.0,4.0,98,0.01,,,0.01,meteohub,2013-01-12 04:46:00,
2013-01-11 22:51:00,39.4,38.8,29.36,NW,315,3.0,4.0,98,0.00,,,0.01,meteohub,2013-01-12 04:51:00,
2013-01-11 22:56:00,39.6,39.0,29.36,NE,45,2.0,4.0,98,0.00,,,0.01,meteohub,2013-01-12 04:56:00,
2013-01-11 23:00:00,39.4,38.8,29.36,NE,45,4.0,4.0,98,0.00,,,0.01,meteohub,2013-01-12 05:00:00,
2013-01-11 23:01:00,39.4,38.8,29.36,NE,45,4.0,5.0,98,0.00,,,0.01,meteohub,2013-01-12 05:01:00,
2013-01-11 23:03:00,39.6,39.0,29.36,NW,315,3.0,5.0,98,0.00,,,0.01,meteohub,2013-01-12 05:03:00,
2013-01-11 23:08:00,39.6,39.0,29.37,East,90,2.0,5.0,98,0.00,,,0.01,meteohub,2013-01-12 05:08:00,
2013-01-11 23:13:00,39.7,39.2,29.37,West,270,4.0,4.0,98,0.00,,,0.01,meteohub,2013-01-12 05:13:00,
2013-01-11 23:18:00,39.7,39.2,29.36,North,0,4.0,4.0,98,0.00,,,0.01,meteohub,2013-01-12 05:18:00,
2013-01-11 23:23:00,39.6,39.0,29.36,NE,45,4.0,8.0,98,0.00,,,0.01,meteohub,2013-01-12 05:23:00,
2013-01-11 23:28:00,39.6,39.0,29.36,West,270,2.0,8.0,98,0.00,,,0.01,meteohub,2013-01-12 05:28:00,
2013-01-11 23:33:00,39.4,38.7,29.37,WNW,293,7.0,8.0,97,0.00,,,0.01,meteohub,2013-01-12 05:33:00,
2013-01-11 23:38:00,39.4,38.7,29.37,NW,315,7.0,7.0,97,0.00,,,0.01,meteohub,2013-01-12 05:38:00,
2013-01-11 23:43:00,39.4,38.7,29.37,West,270,3.0,7.0,97,0.00,,,0.01,meteohub,2013-01-12 05:43:00,
2013-01-11 23:48:00,39.2,38.5,29.37,WNW,293,5.0,8.0,97,0.00,,,0.01,meteohub,2013-01-12 05:48:00,
2013-01-11 23:53:00,38.8,38.3,29.37,North,0,7.0,8.0,98,0.00,,,0.01,meteohub,2013-01-12 05:53:00,
2013-01-11 23:58:00,38.7,38.1,29.37,WNW,293,8.0,8.0,98,0.00,,,0.01,meteohub,2013-01-12 05:58:00,